Tracking 28790 objects as of 18-Apr-2024
HD Live streaming from Space Station
objects crossing your sky now

OBJECT Q

Track OBJECT Q now!
10-day predictions


NORAD ID: 53458
Int'l Code: 2022-098Q
Perigee: 437.5 km
Apogee: 446.4 km
Inclination: 97.5 °
Period: 93.3 minutes
Semi major axis: 6812 km
RCS: Unknown
Launch date: August 10, 2022
Source: People's Republic of China (PRC)
Launch site: Taiyaun Space Center, China (TSC)

Note: This is SATELLITE DEBRIS
Your satellite tracking list
Your tracking list is empty




NASA's NSSDC Master Catalog

Two Line Element Set (TLE):
1 53458U 22098Q   24109.56076347  .00097386  00000-0  21247-2 0  9991
2 53458  97.5209 216.4565 0006530 275.6749  84.3754 15.43843052 93897
Source of the keplerian elements: AFSPC